Hourly Data Report for May 11, 2021

TOBERMORY RCS
ONTARIO
Current Station Operator: ECCC - MSC

45°14'00.000" N
81°38'00.000" W
213.50 m
6128330
71767
TTR

Download Data

Hourly Data (May 2021)
Hourly Data Report for May 11, 2021
TIME
LST
Temp Definition
°C
Dew Point Definition
°C
Rel Hum Definition
%
Precip. Amount Definition
mm

Wind Dir Definition
10's deg

Wind Spd Definition
km/h
Visibility Definition
km
Stn Press Definition
kPa
Hmdx Definition


Wind Chill Definition


Weather Definition


00:00 4.4 2.5 87 0.0 30 11   99.22     LegendNANA
01:00 4.2 2.9 91 0.0 30 11   99.22     LegendNANA
02:00 3.6 2.1 90 0.0 32 12   99.23     LegendNANA
03:00 3.6 1.5 86 0.0 31 12   99.22     LegendNANA
04:00 2.9 0.4 84 0.0 32 12   99.26     LegendNANA
05:00 3.1 0.9 85 0.0 32 12   99.27     LegendNANA
06:00 3.1 1.2 87 0.0 31 12   99.30     LegendNANA
07:00 4.2 1.1 80 0.0 31 16   99.34     LegendNANA
08:00 4.7 1.3 79 0.0 31 19   99.38     LegendNANA
09:00 5.2 2.1 80 0.0 30 15   99.40     LegendNANA
10:00 5.7 1.9 77 0.0 29 21   99.44     LegendNANA
11:00 5.4 1.6 77 0.0 29 27   99.48     LegendNANA
12:00 5.0 2.2 82 0.0 29 23   99.50     LegendNANA
13:00 3.8 1.8 87 0.0 31 23   99.52     LegendNANA
14:00 3.2 1.8 91 0.2 29 19   99.55     LegendNANA
15:00 4.3 3.1 92 0.4 28 16   99.52     LegendNANA
16:00 6.0 3.9 86 0.0 30 15   99.51     LegendNANA
17:00 6.7 3.6 81 0.0 30 14   99.54     LegendNANA
18:00 7.2 3.2 76 0.0 29 12   99.55     LegendNANA
19:00 6.7 2.6 75 0.0 30 12   99.59     LegendNANA
20:00 6.7 3.1 78 0.0 31 17   99.68     LegendNANA
21:00 6.1 3.1 81 0.4 31 6   99.77     LegendNANA
22:00 6.6 2.2 73 0.0 32 8   99.86     LegendNANA
23:00 5.9 3.1 82 0.0 30 11   99.92     LegendNANA

Notes on Data Quality.

Legend

  • E = Estimated
  • M = Missing
  • NA = Not Available*
  • [empty] = Indicates an unobserved value
Date modified: